{"data":{"norad_id":45212,"intl_designator":"2020-012AL","name":"STARLINK-1231","alt_names":[],"object_type":"PAYLOAD","status":"ACTIVE","operator":null,"country":"US","launch_date":"2020-02-17","launch_site_code":"AFETR","launch_vehicle":null,"mission":null,"orbit_class":"UNKNOWN","rcs_meters":null,"size_class":null,"mass_kg":null,"dimensions":null,"purposes":["comms"],"wikipedia_slug":null,"has_3d_model":false,"image_url":null,"decayed_at":null,"tle_current":{"epoch":"2026-05-25T01:39:00.400896Z","epoch_age_seconds":73119,"freshness":"FRESH","line1":"1 45212U 20012AL  26145.06875464  .00033998  00000+0  12802-2 0  9993","line2":"2 45212  53.0399  23.2614 0003721  60.7175 299.4194 15.26813428346878","mean_motion":15.26813428,"eccentricity":0.0003721,"inclination_deg":53.0399,"raan_deg":23.2614,"arg_perigee_deg":60.7175,"mean_anomaly_deg":299.4194,"bstar":0.0012802,"rev_number":34687,"period_min":94.314077515436,"perigee_km":482.79154688677,"apogee_km":487.8993505251,"semimajor_km":6863.4824487059,"source":"CELESTRAK","updated_at":"2026-05-25T13:38:16.383707Z"}}}